NOAA 17 DEB, 48705

Orbit data source: Space-Track

NOAA 17 DEB, 48705 is space debris in SSO originally from a launch on Mon, 24 Jun 2002 UTC launched from the Air Force Western Test Range (AFWTR). Debris objects in space refer to the collection of defunct objects orbiting the Earth. Examples of debris include non-operational satellites, rocket bodies, and fragments generated from explosions, collisions, or faulty payload assembly.

Loading next visibility...
Identifier
48705, 2002-032AN
Orbit
SSO
Country
Flag of USUS
Related business
Manufacturer
Unknown
Mission
Spacecraft
Bus & Motor
Unknown
Mass
Unknown
Launch date (UTC)
2002-06-24 (24 years ago)
Launch vehicle
Unknown
Launch site
Air Force Western Test Range (AFWTR)
Object type
Payload
Rocket body
Debris
Shape & HBR
Unknown shape, 0.1 m
Radar Cross Section
Medium (>0.1 m² and <1 m²)

Expand to show TLE details & history
Last TLE update: 2 days ago

TLE from 2 days ago
0 NOAA 17 DEB
1 48705U 02032AN  26171.38463852  .00000992  00000-0  37364-3 0  9993
2 48705  98.8194 142.2654 0009313 319.6942  40.3550 14.33757358274993
Epoch: 2026-06-20T09:13Z
TLE epoch observation values (Epoch: 2026-06-20T09:13:52.768Z)
Latitude
-0.00006°
Longitude
95.19551°
Altitude
777.051 km
Speed
7.468 km/s
True Right ascension
09h 29m 03s
True Declination
0° 00' 00"
Sunlit
Object was in daylight at epoch
Visualization orbit readout
Latitude
Unknown
Longitude
Unknown
Altitude
Unknown
Speed
Unknown
Apparent Right ascension
Unknown
Apparent Declination
Unknown
Sunlit
N/A
Visualization observer readout
Local Sidereal Time
21:35:08
Azimuth
Unknown
Elevation
Unknown
Doppler factor
Unknown
Orbital elements
Apogee altitude
783.007 km
Perigee altitude
769.682 km
Semi-major axis
7,154.481 km
Eccentricity
0.00093
Inclination
98.8194°
RAAN
142.2654°
Arg. of periapsis
319.6942°
True anomaly
40.42416°
Mean anomaly
40.355°
Eccentric anomaly
40.38958°
Mean motion
3.58654 °/min
Orbital period
100.38 mins
BSTAR
0.00037364
Loading maneuver chart data...
Computing Atmospheric mass density...

Documentation

Showing up to 5 results
|